| time (UTC) | temp F | wind direction | speed MPH | gust MPH | rain 1hr in | rain 24hr in | rain mn in | humidity % | barometer mb |
| 20260505082913 | 59 | 103 | 3.0 | 5.0 | 0.00 | 0.02 | 0.02 | 82 | 1000.3 |
| 20260505082409 | 59 | 93 | 2.0 | 6.0 | 0.00 | 0.02 | 0.02 | 82 | 1000.1 |
| 20260505081906 | 59 | 78 | 2.0 | 5.0 | 0.00 | 0.02 | 0.02 | 81 | 1000.2 |
| 20260505081403 | 59 | 101 | 2.0 | 5.0 | 0.00 | 0.02 | 0.02 | 81 | 1000.1 |
| 20260505080859 | 59 | 94 | 3.0 | 7.0 | 0.00 | 0.02 | 0.02 | 81 | 1000.3 |
| 20260505080355 | 60 | 110 | 4.0 | 5.0 | 0.00 | 0.02 | 0.02 | 81 | 1000.1 |
| 20260505075851 | 60 | 112 | 2.0 | 5.0 | 0.00 | 0.02 | 0.02 | 80 | 1000.1 |
| 20260505075348 | 60 | 86 | 2.0 | 5.0 | 0.00 | 0.02 | 0.02 | 80 | 1000.2 |
| 20260505074845 | 60 | 98 | 4.0 | 5.0 | 0.00 | 0.02 | 0.02 | 80 | 1000.2 |
| 20260505074342 | 60 | 88 | 2.0 | 6.0 | 0.00 | 0.02 | 0.02 | 80 | 1000.2 |
| 20260505073840 | 60 | 97 | 3.0 | 6.0 | 0.00 | 0.02 | 0.02 | 81 | 1000.4 |
| 20260505073337 | 60 | 142 | 2.0 | 5.0 | 0.00 | 0.02 | 0.02 | 81 | 1000.2 |
| 20260505072834 | 60 | 92 | 2.0 | 6.0 | 0.00 | 0.02 | 0.02 | 81 | 1000.3 |
| 20260505072330 | 60 | 89 | 3.0 | 6.0 | 0.02 | 0.02 | 0.02 | 81 | 1000.1 |
| 20260505071826 | 60 | 98 | 3.0 | 5.0 | 0.02 | 0.02 | 0.02 | 82 | 1000.0 |
| 20260505071323 | 60 | 139 | 4.0 | 5.0 | 0.02 | 0.02 | 0.02 | 81 | 1000.4 |
| 20260505070821 | 61 | 109 | 3.0 | 6.0 | 0.12 | 0.02 | 0.02 | 78 | 1000.7 |
| 20260505070318 | 62 | 138 | 3.0 | 6.0 | 0.02 | 0.00 | 0.00 | 74 | 1001.5 |
| 20260505065813 | 62 | 104 | 4.0 | 6.0 | 0.00 | 0.00 | 0.00 | 72 | 1001.2 |
| 20260505065310 | 62 | 108 | 3.0 | 6.0 | 0.00 | 0.00 | 0.00 | 71 | 1001.1 |
| 20260505064807 | 63 | 114 | 5.0 | 6.0 | 0.00 | 0.00 | 0.00 | 70 | 1001.4 |
| 20260505064304 | 63 | 107 | 3.0 | 5.0 | 0.00 | 0.00 | 0.00 | 68 | 1001.0 |
| 20260505063802 | 64 | 97 | 4.0 | 6.0 | 0.00 | 0.00 | 0.00 | 66 | 1001.1 |
| 20260505063258 | 64 | 139 | 4.0 | 5.0 | 0.00 | 0.00 | 0.00 | 66 | 1001.0 |
| 20260505062754 | 64 | 129 | 6.0 | 8.0 | 0.00 | 0.00 | 0.00 | 65 | 1001.4 |
| 20260505062252 | 64 | 106 | 3.0 | 8.0 | 0.00 | 0.00 | 0.00 | 65 | 1001.2 |
| 20260505061748 | 64 | 110 | 3.0 | 5.0 | 0.00 | 0.00 | 0.00 | 64 | 1001.2 |
| 20260505061246 | 64 | 110 | 4.0 | 6.0 | 0.00 | 0.00 | 0.00 | 63 | 1001.1 |
| 20260505060743 | 64 | 113 | 2.0 | 8.0 | 0.00 | 0.00 | 0.00 | 63 | 1001.2 |
| 20260505060241 | 64 | 86 | 2.0 | 6.0 | 0.00 | 0.00 | 0.00 | 63 | 1001.3 |
| 20260505055736 | 64 | 122 | 3.0 | 6.0 | 0.00 | 0.00 | 0.00 | 63 | 1001.0 |
| 20260505055232 | 65 | 104 | 3.0 | 8.0 | 0.00 | 0.00 | 0.00 | 63 | 1001.0 |
| 20260505054730 | 65 | 149 | 6.0 | 7.0 | 0.00 | 0.00 | 0.00 | 63 | 1001.2 |
| 20260505054228 | 64 | 107 | 4.0 | 6.0 | 0.00 | 0.00 | 0.00 | 63 | 1001.2 |
| 20260505053726 | 64 | 109 | 3.0 | 6.0 | 0.00 | 0.00 | 0.00 | 63 | 1001.1 |
| 20260505053222 | 64 | 92 | 3.0 | 6.0 | 0.00 | 0.00 | 0.00 | 63 | 1001.2 |
| 20260505052719 | 64 | 117 | 3.0 | 5.0 | 0.00 | 0.00 | 0.00 | 63 | 1001.2 |
| 20260505052216 | 64 | 140 | 2.0 | 5.0 | 0.00 | 0.00 | 0.00 | 64 | 1001.2 |
| 20260505051713 | 63 | 125 | 2.0 | 6.0 | 0.00 | 0.00 | 0.00 | 64 | 1001.2 |
| 20260505051211 | 63 | 85 | 4.0 | 6.0 | 0.00 | 0.00 | 0.00 | 64 | 1001.2 |
| 20260505050709 | 63 | 100 | 4.0 | 6.0 | 0.00 | 0.00 | 0.00 | 63 | 1001.2 |
| 20260505050207 | 63 | 102 | 3.0 | 6.0 | 0.00 | 0.00 | 0.00 | 63 | 1001.0 |
| 20260505041642 | 61 | 107 | 3.0 | 4.0 | 0.00 | 0.00 | 0.00 | 62 | 1001.0 |
| 20260505041140 | 61 | 113 | 3.0 | 3.0 | 0.00 | 0.00 | 0.00 | 63 | 1001.2 |
| 20260505040636 | 61 | 101 | 1.0 | 4.0 | 0.00 | 0.00 | 0.00 | 62 | 1001.1 |
| 20260505040134 | 62 | 45 | 3.0 | 4.0 | 0.00 | 0.00 | 0.00 | 62 | 1001.3 |
| 20260505035630 | 62 | 116 | 3.0 | 4.0 | 0.00 | 0.00 | 0.00 | 62 | 1001.4 |
| 20260505035126 | 62 | 126 | 3.0 | 4.0 | 0.00 | 0.00 | 0.00 | 61 | 1001.5 |
| 20260505034623 | 62 | 105 | 2.0 | 4.0 | 0.00 | 0.00 | 0.00 | 61 | 1001.6 |
| 20260505034120 | 62 | 103 | 2.0 | 3.0 | 0.00 | 0.00 | 0.00 | 60 | 1001.7 |
| 20260505033616 | 62 | 78 | 3.0 | 5.0 | 0.00 | 0.00 | 0.00 | 59 | 1001.7 |
| 20260505033115 | 63 | 100 | 2.0 | 5.0 | 0.00 | 0.00 | 0.00 | 57 | 1001.9 |
| 20260505032613 | 63 | 117 | 4.0 | 5.0 | 0.00 | 0.00 | 0.00 | 55 | 1001.9 |
| 20260505032109 | 63 | 100 | 3.0 | 5.0 | 0.00 | 0.00 | 0.00 | 54 | 1002.0 |
| 20260505031606 | 62 | 124 | 4.0 | 5.0 | 0.00 | 0.00 | 0.00 | 53 | 1002.0 |
| 20260505031102 | 62 | 115 | 3.0 | 6.0 | 0.00 | 0.00 | 0.00 | 52 | 1002.1 |
| 20260505030559 | 62 | 78 | 2.0 | 4.0 | 0.00 | 0.00 | 0.00 | 53 | 1001.9 |
| 20260505030055 | 61 | 105 | 3.0 | 5.0 | 0.00 | 0.00 | 0.00 | 53 | 1002.0 |
| 20260505025551 | 60 | 118 | 1.0 | 5.0 | 0.00 | 0.00 | 0.00 | 54 | 1002.0 |
| 20260505025050 | 60 | 98 | 2.0 | 4.0 | 0.00 | 0.00 | 0.00 | 57 | 1001.7 |
| 20260505024547 | 60 | 96 | 2.0 | 3.0 | 0.00 | 0.00 | 0.00 | 59 | 1001.7 |
| 20260505024044 | 59 | 105 | 3.0 | 4.0 | 0.00 | 0.00 | 0.00 | 59 | 1001.9 |
| 20260505023541 | 59 | 87 | 2.0 | 4.0 | 0.00 | 0.00 | 0.00 | 61 | 1002.0 |
| 20260505023039 | 58 | 94 | 3.0 | 4.0 | 0.00 | 0.00 | 0.00 | 62 | 1001.7 |
| 20260505022536 | 58 | 120 | 3.0 | 4.0 | 0.00 | 0.00 | 0.00 | 62 | 1002.1 |
| 20260505022033 | 58 | 114 | 3.0 | 3.0 | 0.00 | 0.00 | 0.00 | 62 | 1001.9 |
| 20260505021530 | 58 | 100 | 2.0 | 4.0 | 0.00 | 0.00 | 0.00 | 61 | 1001.9 |
| 20260505021027 | 58 | 110 | 3.0 | 4.0 | 0.00 | 0.00 | 0.00 | 61 | 1002.0 |
| 20260505020526 | 59 | 109 | 2.0 | 4.0 | 0.00 | 0.00 | 0.00 | 62 | 1002.1 |
| 20260505020024 | 59 | 106 | 3.0 | 3.0 | 0.00 | 0.00 | 0.00 | 62 | 1001.9 |
| 20260505015521 | 59 | 101 | 2.0 | 3.0 | 0.00 | 0.00 | 0.00 | 63 | 1001.9 |
| 20260505015017 | 59 | 121 | 3.0 | 3.0 | 0.00 | 0.00 | 0.00 | 61 | 1002.2 |
| 20260505014514 | 59 | 113 | 2.0 | 4.0 | 0.00 | 0.00 | 0.00 | 61 | 1002.1 |
| 20260505014012 | 59 | 101 | 2.0 | 4.0 | 0.00 | 0.00 | 0.00 | 61 | 1002.2 |
| 20260505013509 | 59 | 129 | 4.0 | 4.0 | 0.00 | 0.00 | 0.00 | 59 | 1002.2 |
| 20260505013006 | 60 | 117 | 2.0 | 4.0 | 0.00 | 0.00 | 0.00 | 59 | 1002.2 |
| 20260505012504 | 60 | 124 | 2.0 | 4.0 | 0.00 | 0.00 | 0.00 | 58 | 1002.0 |
| 20260505012000 | 60 | 148 | 4.0 | 5.0 | 0.00 | 0.00 | 0.00 | 56 | 1002.1 |
| 20260505011456 | 60 | 122 | 4.0 | 5.0 | 0.00 | 0.00 | 0.00 | 56 | 1002.3 |
| 20260505010953 | 61 | 138 | 4.0 | 4.0 | 0.00 | 0.00 | 0.00 | 54 | 1002.1 |
| 20260505010449 | 61 | 132 | 4.0 | 5.0 | 0.00 | 0.00 | 0.00 | 54 | 1002.0 |
| 20260505005945 | 62 | 141 | 4.0 | 5.0 | 0.00 | 0.00 | 0.00 | 53 | 1001.9 |
| 20260505005442 | 62 | 127 | 4.0 | 4.0 | 0.00 | 0.00 | 0.00 | 52 | 1002.1 |
| 20260505004940 | 63 | 138 | 3.0 | 4.0 | 0.00 | 0.00 | 0.00 | 50 | 1002.1 |
| 20260505004436 | 63 | 128 | 3.0 | 5.0 | 0.00 | 0.00 | 0.00 | 48 | 1002.0 |
| 20260505003933 | 63 | 129 | 4.0 | 5.0 | 0.00 | 0.00 | 0.00 | 48 | 1002.1 |
| 20260505003430 | 64 | 130 | 4.0 | 5.0 | 0.00 | 0.00 | 0.00 | 48 | 1002.0 |
| 20260505002927 | 65 | 119 | 4.0 | 5.0 | 0.00 | 0.00 | 0.00 | 46 | 1001.9 |
| 20260505002423 | 65 | 121 | 4.0 | 4.0 | 0.00 | 0.00 | 0.00 | 46 | 1002.0 |
| 20260505001921 | 66 | 120 | 4.0 | 5.0 | 0.00 | 0.00 | 0.00 | 45 | 1001.9 |
| 20260505001419 | 67 | 113 | 4.0 | 4.0 | 0.00 | 0.00 | 0.00 | 43 | 1001.9 |
| 20260505000916 | 67 | 107 | 3.0 | 4.0 | 0.00 | 0.00 | 0.00 | 42 | 1002.0 |
| 20260505000414 | 68 | 118 | 4.0 | 5.0 | 0.00 | 0.00 | 0.00 | 40 | 1002.0 |
| 20260504235910 | 68 | 116 | 4.0 | 5.0 | 0.00 | 0.00 | 0.00 | 40 | 1002.0 |
| 20260504235408 | 68 | 118 | 3.0 | 5.0 | 0.00 | 0.00 | 0.00 | 39 | 1002.0 |
| 20260504234903 | 69 | 89 | 3.0 | 5.0 | 0.00 | 0.00 | 0.00 | 39 | 1002.0 |
| 20260504234401 | 69 | 115 | 3.0 | 5.0 | 0.00 | 0.00 | 0.00 | 38 | 1002.1 |
| 20260504233857 | 70 | 117 | 4.0 | 4.0 | 0.00 | 0.00 | 0.00 | 37 | 1002.4 |
| 20260504233353 | 70 | 122 | 3.0 | 4.0 | 0.00 | 0.00 | 0.00 | 37 | 1002.2 |
| 20260504232850 | 70 | 124 | 4.0 | 4.0 | 0.00 | 0.00 | 0.00 | 36 | 1002.3 |
| 20260504232347 | 70 | 110 | 2.0 | 4.0 | 0.00 | 0.00 | 0.00 | 37 | 1002.2 |
| 20260504231844 | 70 | 123 | 3.0 | 4.0 | 0.00 | 0.00 | 0.00 | 35 | 1002.2 |
| 20260504231340 | 70 | 116 | 3.0 | 6.0 | 0.00 | 0.00 | 0.00 | 35 | 1002.2 |
| 20260504230836 | 71 | 120 | 4.0 | 5.0 | 0.00 | 0.00 | 0.00 | 35 | 1002.2 |
| 20260504230335 | 71 | 106 | 4.0 | 4.0 | 0.00 | 0.00 | 0.00 | 35 | 1002.2 |
| 20260504225833 | 71 | 172 | 2.0 | 5.0 | 0.00 | 0.00 | 0.00 | 34 | 1002.1 |
| 20260504225329 | 72 | 154 | 2.0 | 5.0 | 0.00 | 0.00 | 0.00 | 35 | 1002.2 |
| 20260504224827 | 72 | 114 | 4.0 | 5.0 | 0.00 | 0.00 | 0.00 | 33 | 1002.3 |
| 20260504224323 | 72 | 105 | 3.0 | 8.0 | 0.00 | 0.00 | 0.00 | 33 | 1002.0 |
| 20260504223820 | 73 | 242 | 8.0 | 8.0 | 0.00 | 0.00 | 0.00 | 33 | 1002.0 |
| 20260504223315 | 73 | 123 | 5.0 | 9.0 | 0.00 | 0.00 | 0.00 | 33 | 1002.0 |
| 20260504222812 | 73 | 112 | 4.0 | 15.0 | 0.00 | 0.00 | 0.00 | 32 | 1002.1 |
| 20260504222309 | 73 | 103 | 2.0 | 6.0 | 0.00 | 0.00 | 0.00 | 33 | 1002.1 |
| 20260504221808 | 73 | 200 | 4.0 | 8.0 | 0.00 | 0.00 | 0.00 | 32 | 1001.9 |
| 20260504221304 | 73 | 117 | 3.0 | 8.0 | 0.00 | 0.00 | 0.00 | 33 | 1002.1 |
| 20260504220801 | 74 | 175 | 6.0 | 7.0 | 0.00 | 0.00 | 0.00 | 32 | 1002.0 |
| 20260504220258 | 75 | 148 | 4.0 | 7.0 | 0.00 | 0.00 | 0.00 | 31 | 1002.2 |
| 20260504215755 | 75 | 86 | 3.0 | 12.0 | 0.00 | 0.00 | 0.00 | 31 | 1001.9 |
| 20260504215251 | 75 | 182 | 4.0 | 6.0 | 0.00 | 0.00 | 0.00 | 31 | 1001.8 |
| 20260504214747 | 75 | 93 | 3.0 | 7.0 | 0.00 | 0.00 | 0.00 | 33 | 1002.1 |
| 20260504214244 | 75 | 124 | 4.0 | 5.0 | 0.00 | 0.00 | 0.00 | 32 | 1002.0 |
| 20260504213741 | 75 | 121 | 6.0 | 9.0 | 0.00 | 0.00 | 0.00 | 31 | 1002.0 |
| 20260504213237 | 75 | 100 | 3.0 | 4.0 | 0.00 | 0.00 | 0.00 | 32 | 1002.0 |
| 20260504212734 | 75 | 157 | 3.0 | 10.0 | 0.00 | 0.00 | 0.00 | 31 | 1002.1 |
| 20260504212231 | 75 | 125 | 3.0 | 5.0 | 0.00 | 0.00 | 0.00 | 32 | 1002.0 |
| 20260504211728 | 76 | 96 | 4.0 | 9.0 | 0.00 | 0.00 | 0.00 | 32 | 1002.0 |
| 20260504211224 | 77 | 167 | 3.0 | 7.0 | 0.00 | 0.00 | 0.00 | 31 | 1002.2 |
| 20260504210722 | 77 | 285 | 5.0 | 6.0 | 0.00 | 0.00 | 0.00 | 31 | 1002.1 |
| 20260504210219 | 77 | 138 | 2.0 | 5.0 | 0.00 | 0.00 | 0.00 | 35 | 1002.2 |
| 20260504205716 | 77 | 149 | 1.0 | 6.0 | 0.00 | 0.00 | 0.00 | 33 | 1002.2 |
| 20260504205214 | 76 | 112 | 4.0 | 6.0 | 0.00 | 0.00 | 0.00 | 33 | 1002.0 |
| 20260504204712 | 76 | 113 | 3.0 | 11.0 | 0.00 | 0.00 | 0.00 | 34 | 1002.2 |
| 20260504204210 | 76 | 100 | 4.0 | 15.0 | 0.00 | 0.00 | 0.00 | 33 | 1002.1 |
| 20260504203709 | 76 | 155 | 4.0 | 6.0 | 0.00 | 0.00 | 0.00 | 35 | 1002.2 |
| 20260504203206 | 76 | 205 | 4.0 | 9.0 | 0.00 | 0.00 | 0.00 | 33 | 1002.1 |
| 20260504202706 | 75 | 192 | 3.0 | 13.0 | 0.00 | 0.00 | 0.00 | 35 | 1002.3 |
| 20260504202203 | 75 | 89 | 4.0 | 7.0 | 0.00 | 0.00 | 0.00 | 35 | 1002.3 |
| 20260504201700 | 75 | 125 | 4.0 | 11.0 | 0.00 | 0.00 | 0.00 | 35 | 1002.6 |
| 20260504201157 | 75 | 113 | 5.0 | 16.0 | 0.00 | 0.00 | 0.00 | 35 | 1002.6 |
| 20260504200655 | 75 | 127 | 6.0 | 6.0 | 0.00 | 0.00 | 0.00 | 37 | 1002.5 |
| 20260504200151 | 75 | 150 | 2.0 | 7.0 | 0.00 | 0.00 | 0.00 | 35 | 1002.6 |
| 20260504195647 | 76 | 226 | 9.0 | 15.0 | 0.00 | 0.00 | 0.00 | 36 | 1002.7 |
| 20260504195143 | 75 | 122 | 4.0 | 6.0 | 0.00 | 0.00 | 0.00 | 35 | 1002.8 |
| 20260504194640 | 75 | 122 | 7.0 | 8.0 | 0.00 | 0.00 | 0.00 | 37 | 1002.9 |
| 20260504194136 | 75 | 80 | 4.0 | 6.0 | 0.00 | 0.00 | 0.00 | 38 | 1003.1 |
| 20260504193633 | 75 | 117 | 5.0 | 7.0 | 0.00 | 0.00 | 0.00 | 36 | 1003.1 |
| 20260504193131 | 75 | 104 | 6.0 | 7.0 | 0.00 | 0.00 | 0.00 | 37 | 1003.0 |
| 20260504192629 | 75 | 160 | 2.0 | 7.0 | 0.00 | 0.00 | 0.00 | 37 | 1003.0 |
| 20260504192126 | 75 | 133 | 6.0 | 13.0 | 0.00 | 0.00 | 0.00 | 37 | 1003.4 |
| 20260504191625 | 74 | 100 | 4.0 | 7.0 | 0.00 | 0.00 | 0.00 | 38 | 1003.3 |
| 20260504191121 | 74 | 157 | 5.0 | 13.0 | 0.00 | 0.00 | 0.00 | 39 | 1003.3 |
| 20260504190617 | 75 | 139 | 4.0 | 14.0 | 0.00 | 0.00 | 0.00 | 40 | 1003.4 |
| 20260504190114 | 74 | 106 | 4.0 | 6.0 | 0.00 | 0.00 | 0.00 | 39 | 1003.4 |
| 20260504185610 | 74 | 126 | 4.0 | 16.0 | 0.00 | 0.00 | 0.00 | 37 | 1003.5 |
| 20260504185107 | 74 | 116 | 5.0 | 5.0 | 0.00 | 0.00 | 0.00 | 41 | 1003.8 |
| 20260504184602 | 73 | 123 | 4.0 | 6.0 | 0.00 | 0.00 | 0.00 | 40 | 1003.7 |
| 20260504184058 | 73 | 97 | 3.0 | 7.0 | 0.00 | 0.00 | 0.00 | 39 | 1003.8 |
| 20260504183555 | 74 | 92 | 4.0 | 7.0 | 0.00 | 0.00 | 0.00 | 40 | 1003.8 |
| 20260504183053 | 74 | 121 | 6.0 | 6.0 | 0.00 | 0.00 | 0.00 | 41 | 1003.9 |
| 20260504182550 | 74 | 125 | 5.0 | 7.0 | 0.00 | 0.00 | 0.00 | 41 | 1003.7 |
| 20260504182047 | 73 | 166 | 3.0 | 9.0 | 0.00 | 0.00 | 0.00 | 42 | 1003.9 |
| 20260504181544 | 73 | 126 | 3.0 | 8.0 | 0.00 | 0.00 | 0.00 | 41 | 1003.9 |
| 20260504181042 | 73 | 99 | 2.0 | 6.0 | 0.00 | 0.00 | 0.00 | 42 | 1004.0 |
| 20260504180541 | 73 | 107 | 5.0 | 6.0 | 0.00 | 0.00 | 0.00 | 42 | 1004.0 |
| 20260504180040 | 72 | 108 | 4.0 | 6.0 | 0.00 | 0.00 | 0.00 | 42 | 1004.2 |
| 20260504175536 | 72 | 141 | 3.0 | 12.0 | 0.00 | 0.00 | 0.00 | 43 | 1004.3 |
| 20260504175033 | 73 | 99 | 6.0 | 7.0 | 0.00 | 0.00 | 0.00 | 41 | 1004.1 |
| 20260504174531 | 72 | 120 | 3.0 | 6.0 | 0.00 | 0.00 | 0.00 | 41 | 1004.3 |
| 20260504174028 | 71 | 124 | 6.0 | 8.0 | 0.00 | 0.00 | 0.00 | 42 | 1004.5 |
| 20260504173525 | 71 | 120 | 3.0 | 10.0 | 0.00 | 0.00 | 0.00 | 42 | 1004.3 |
| 20260504173022 | 71 | 110 | 4.0 | 14.0 | 0.00 | 0.00 | 0.00 | 43 | 1004.5 |
| 20260504172518 | 71 | 230 | 8.0 | 8.0 | 0.00 | 0.00 | 0.00 | 43 | 1004.4 |
| 20260504172014 | 71 | 97 | 3.0 | 7.0 | 0.00 | 0.00 | 0.00 | 43 | 1004.5 |
| 20260504171512 | 71 | 113 | 6.0 | 8.0 | 0.00 | 0.00 | 0.00 | 42 | 1004.5 |
| 20260504171008 | 71 | 88 | 4.0 | 7.0 | 0.00 | 0.00 | 0.00 | 43 | 1004.5 |
| 20260504170504 | 70 | 74 | 2.0 | 6.0 | 0.00 | 0.00 | 0.00 | 44 | 1004.6 |
| 20260504160425 | 69 | 211 | 5.0 | 13.0 | 0.00 | 0.00 | 0.00 | 43 | 1004.9 |
| 20260504150848 | 66 | 112 | 5.0 | 7.0 | 0.00 | 0.00 | 0.00 | 45 | 1005.3 |
| 20260504150345 | 65 | 94 | 4.0 | 7.0 | 0.00 | 0.00 | 0.00 | 46 | 1005.3 |
| 20260504141315 | 65 | 106 | 6.0 | 13.0 | 0.00 | 0.00 | 0.00 | 45 | 1005.3 |
| 20260504140811 | 64 | 143 | 4.0 | 6.0 | 0.00 | 0.00 | 0.00 | 46 | 1005.2 |
| 20260504140307 | 64 | 164 | 3.0 | 8.0 | 0.00 | 0.00 | 0.00 | 46 | 1005.3 |
| 20260504130736 | 62 | 162 | 4.0 | 9.0 | 0.00 | 0.00 | 0.00 | 47 | 1005.8 |
| 20260504130232 | 61 | 103 | 3.0 | 6.0 | 0.00 | 0.00 | 0.00 | 47 | 1005.7 |
| 20260504120156 | 58 | 187 | 5.0 | 6.0 | 0.00 | 0.00 | 0.00 | 52 | 1006.1 |
| 20260504110623 | 54 | 115 | 4.0 | 4.0 | 0.00 | 0.00 | 0.00 | 55 | 1006.1 |
| 20260504110119 | 54 | 141 | 5.0 | 6.0 | 0.00 | 0.00 | 0.00 | 56 | 1006.1 |
| 20260504100545 | 52 | 116 | 3.0 | 5.0 | 0.00 | 0.00 | 0.00 | 56 | 1005.6 |